Kake, AK

1:25 PM AKDT on June 26, 2017 (GMT -0800)
Kake

Weather History for PAFE - June, 2013

Change the Weather History Date:

Thursday, June 27, 2013

  Actual Average Record
Temperature  
Mean Temperature 58 °F -  
Max Temperature 66 °F 59 °F 73 °F (2001)
Min Temperature 51 °F 45 °F 42 °F (2010)
Degree Days  
Heating Degree Days 6    
Growing Degree Days 8 (Base 50)    
Moisture  
Dew Point 50 °F    
Average Humidity 72    
Maximum Humidity 88    
Minimum Humidity 56    
Precipitation  
Precipitation 0.02 in - - ()
Sea Level Pressure  
Sea Level Pressure 30.10 in    
Wind  
Wind Speed 4 mph (ENE)    
Max Wind Speed 10 mph    
Max Gust Speed -    
Visibility 10 miles    
Events      
Averages and records for this station are not official NWS values.
T = Trace of Precipitation, MM = Missing Value Source: NWS Daily Summary

Daily Weather History Graph

Daily Weather History Graph

Search for Another Location

Airport or City:

Trip Planner

Search our weather history database for the weather conditions in past years. The results will help you decide how hot, cold, wet, or windy it might be!

Date:

Astronomy

Jun. 27, 2013 Rise Set
Actual Time 4:03 AM AKDT 9:53 PM AKDT
Civil Twilight 2:56 AM AKDT 11:00 PM AKDT
Nautical Twilight 1:31 AM AKDT 12:26 AM AKDT
Astronomical Twilight Sun does not set Sun does not set
Moon 11:36 PM AKDT (6/27) 10:23 AM AKDT (6/27)
Length of Visible Light 20h 04m
Length of Day
17h 49m
Waning Gibbous, 75% of the Moon is Illuminated
Jun 27
Waning Gibbous
Jun 29
Last Quarter
Jul 7
New
Jul 15
First Quarter
Jul 22
Full

Hourly Weather History & Observations

Time (AKDT) Temp. Dew Point Humidity Pressure Visibility Wind Dir Wind Speed Gust Speed Precip Events Conditions
12:16 AM 57.2 °F 51.8 °F 82% 30.01 in 10.0 mi ESE 3.5 mph - N/A   Overcast
12:36 AM 57.2 °F 50.0 °F 77% 30.01 in 10.0 mi SE 5.8 mph - N/A   Overcast
12:56 AM 57.2 °F 50.0 °F 77% 30.01 in 10.0 mi ESE 5.8 mph - N/A   Overcast
1:16 AM 57.2 °F 48.2 °F 72% 30.02 in 10.0 mi ESE 5.8 mph - N/A   Overcast
1:36 AM 57.2 °F 48.2 °F 72% 30.02 in 10.0 mi ESE 6.9 mph - N/A   Overcast
1:56 AM 57.2 °F 48.2 °F 72% 30.02 in 10.0 mi ESE 5.8 mph - N/A   Mostly Cloudy
2:16 AM 57.2 °F 48.2 °F 72% 30.02 in 10.0 mi ESE 4.6 mph - N/A   Overcast
2:56 AM 57.2 °F 48.2 °F 72% 30.03 in 10.0 mi ESE 4.6 mph - N/A   Overcast
3:36 AM 55.4 °F 48.2 °F 77% 30.04 in 10.0 mi ESE 4.6 mph - N/A   Overcast
4:16 AM 55.4 °F 48.2 °F 77% 30.04 in 10.0 mi Calm Calm - N/A   Overcast
4:36 AM 55.4 °F 50.0 °F 82% 30.04 in 10.0 mi Calm Calm - N/A   Overcast
5:16 AM 55.4 °F 48.2 °F 77% 30.05 in 10.0 mi ESE 4.6 mph - N/A   Overcast
5:36 AM 55.4 °F 48.2 °F 77% 30.06 in 10.0 mi East 4.6 mph - N/A   Overcast
5:56 AM 55.4 °F 50.0 °F 82% 30.06 in 10.0 mi Calm Calm - N/A   Overcast
6:16 AM 55.4 °F 50.0 °F 82% 30.06 in 10.0 mi Calm Calm - N/A   Overcast
6:56 AM 55.4 °F 51.8 °F 88% 30.07 in 10.0 mi East 3.5 mph - 0.02 in   Overcast
7:16 AM 55.4 °F 51.8 °F 88% 30.07 in 8.0 mi East 3.5 mph - N/A   Overcast
7:36 AM 55.4 °F 51.8 °F 88% 30.08 in 10.0 mi East 5.8 mph - N/A   Overcast
7:56 AM 55.4 °F 51.8 °F 88% 30.08 in 10.0 mi ESE 5.8 mph - N/A   Overcast
8:16 AM 57.2 °F 50.0 °F 77% 30.09 in 10.0 mi SE 3.5 mph - N/A   Overcast
8:56 AM 57.2 °F 51.8 °F 82% 30.09 in 10.0 mi ESE 3.5 mph - N/A   Overcast
9:36 AM 57.2 °F 51.8 °F 82% 30.10 in 10.0 mi Calm Calm - N/A   Overcast
9:56 AM 57.2 °F 51.8 °F 82% 30.10 in 10.0 mi SW 3.5 mph - N/A   Overcast
10:56 AM 59.0 °F 53.6 °F 82% 30.10 in 10.0 mi West 4.6 mph - N/A   Overcast
11:16 AM 60.8 °F 53.6 °F 77% 30.11 in 10.0 mi Calm Calm - N/A   Overcast
11:36 AM 62.6 °F 51.8 °F 68% 30.11 in 10.0 mi NNE 4.6 mph - N/A   Scattered Clouds
12:36 PM 62.6 °F 50.0 °F 63% 30.11 in 10.0 mi Calm Calm - N/A   Overcast
12:56 PM 62.6 °F 48.2 °F 59% 30.12 in 10.0 mi SW 4.6 mph - N/A   Overcast
1:36 PM 64.4 °F 50.0 °F 59% 30.12 in 10.0 mi West 6.9 mph - N/A   Overcast
1:56 PM 62.6 °F 50.0 °F 63% 30.13 in 10.0 mi NNE 5.8 mph - N/A   Mostly Cloudy
2:16 PM 64.4 °F 51.8 °F 64% 30.13 in 10.0 mi NE 4.6 mph - N/A   Mostly Cloudy
2:36 PM 66.2 °F 51.8 °F 60% 30.12 in 10.0 mi NNW 10.4 mph - N/A   Mostly Cloudy
2:56 PM 64.4 °F 48.2 °F 56% 30.12 in 10.0 mi NW 8.1 mph - N/A   Overcast
3:16 PM 64.4 °F 50.0 °F 59% 30.12 in 10.0 mi North 10.4 mph - N/A   Overcast
3:36 PM 64.4 °F 50.0 °F 59% 30.12 in 10.0 mi NNW 8.1 mph - N/A   Scattered Clouds
3:56 PM 64.4 °F 51.8 °F 64% 30.12 in 10.0 mi North 8.1 mph - N/A   Scattered Clouds
4:16 PM 64.4 °F 50.0 °F 59% 30.13 in 10.0 mi NE 5.8 mph - N/A   Overcast
4:36 PM 64.4 °F 50.0 °F 59% 30.13 in 10.0 mi NE 5.8 mph - N/A   Overcast
5:16 PM 64.4 °F 50.0 °F 59% 30.13 in 10.0 mi NNE 3.5 mph - N/A   Mostly Cloudy
5:36 PM 62.6 °F 48.2 °F 59% 30.13 in 10.0 mi Calm Calm - N/A   Mostly Cloudy
5:56 PM 62.6 °F 50.0 °F 63% 30.13 in 10.0 mi Calm Calm - N/A   Mostly Cloudy
6:16 PM 64.4 °F 50.0 °F 59% 30.13 in 10.0 mi West 3.5 mph - N/A   Scattered Clouds
6:56 PM 64.4 °F 48.2 °F 56% 30.13 in 10.0 mi Calm Calm - N/A   Mostly Cloudy
7:16 PM 64.4 °F 48.2 °F 56% 30.13 in 10.0 mi NE 5.8 mph - N/A   Clear
7:36 PM 64.4 °F 48.2 °F 56% 30.13 in 10.0 mi NE 5.8 mph - N/A   Clear
7:56 PM 64.4 °F 48.2 °F 56% 30.14 in 10.0 mi NNE 4.6 mph - N/A   Clear
8:16 PM 59.0 °F 48.2 °F 67% 30.14 in 10.0 mi West 3.5 mph - N/A   Clear
8:36 PM 55.4 °F 48.2 °F 77% 30.14 in 10.0 mi Calm Calm - N/A   Clear
8:56 PM 55.4 °F 48.2 °F 77% 30.14 in 10.0 mi Calm Calm - N/A   Clear
9:16 PM 53.6 °F 46.4 °F 77% 30.14 in 10.0 mi Calm Calm - N/A   Clear
9:56 PM 53.6 °F 46.4 °F 77% 30.16 in 10.0 mi Calm Calm - N/A   Clear
10:36 PM 51.8 °F 46.4 °F 82% 30.17 in 10.0 mi Calm Calm - N/A   Clear
10:56 PM 51.8 °F 46.4 °F 82% 30.17 in 10.0 mi Calm Calm - N/A   Clear
11:16 PM 51.8 °F 46.4 °F 82% 30.17 in 10.0 mi Calm Calm - N/A   Clear
11:36 PM 51.8 °F 46.4 °F 82% 30.17 in 10.0 mi Calm Calm - N/A   Clear